User: anonymous   Login
Location: Unspecified
(0.0000°N, 0.0000°E)
Time: 21:18:51
(UTC+01:00)
Language:

AO-7 - Orbit

View from above orbital plane
View from above orbital plane
View from above satellite
View from above satellite

Ground track
Ground track

The orbit data is extracted from the following two-line orbital elements,

1 07530U 74089B   15061.55257413 -.00000030  00000-0  86340-4 0  9997
2 07530 101.5087 040.2011 0012085 149.3221 322.0439 12.53612259843896
Epoch (UTC): 02 March 2015 13:15:42
Eccentricity: 0.0012085
inclination: 101.5087°
perigee height: 1440 km
apogee height: 1459 km
right ascension of ascending node: 40.2011°
argument of perigee: 149.3221°
revolutions per day: 12.53612259
mean anomaly at epoch: 322.0439°
orbit number at epoch: 84389

The dashed part of the orbit path shows where the satellite is in the earth's shadow,  

DLR